Printer-friendly version

IAU Minor Planet Center

Minor Planet Center

MPEC 2007-T66 : 2007 TH19

The following Minor Planet Electronic Circular may be linked-to from your own Web pages, but must not otherwise be redistributed electronically.


Read MPEC 2007-T65 Read MPEC 2007-T67


M.P.E.C. 2007-T66                                Issued 2007 Oct. 10, 22:03 UT

     The Minor Planet Electronic Circulars contain information on unusual
         minor planets and routine data on comets.  They are published
   on behalf of Commission 20 of the International Astronomical Union by the
          Minor Planet Center, Smithsonian Astrophysical Observatory,
                          Cambridge, MA 02138, U.S.A.

             Prepared using the Tamkin Foundation Computer Network

                              MPC@CFA.HARVARD.EDU
          URL http://www.cfa.harvard.edu/iau/mpc.html  ISSN 1523-6714

                                   2007 TH19

Observations:
     K07T19H* C2007 10 08.42597 03 28 15.96 +16 13 23.7          21.3 V ET066G96
     K07T19H  C2007 10 08.43295 03 28 15.56 +16 13 22.8          21.1 V ET066G96
     K07T19H  C2007 10 08.43969 03 28 15.24 +16 13 20.8          22.0 V ET066G96
     K07T19H  C2007 10 08.44638 03 28 14.91 +16 13 19.9          21.9 V ET066G96
     K07T19H  C2007 10 08.48204 03 28 13.11 +16 13 13.4          21.6 V ET066G96
     K07T19H  C2007 10 08.48917 03 28 12.79 +16 13 12.3          21.6 V ET066G96
     K07T19H  C2007 10 08.49620 03 28 12.39 +16 13 10.5          21.7 V ET066G96
     K07T19H  C2007 10 09.40528 03 27 27.21 +16 10 23.6          21.4 V ET066G96
     K07T19H  C2007 10 09.41221 03 27 26.91 +16 10 21.2          21.9 V ET066G96
     K07T19H  C2007 10 09.41911 03 27 26.52 +16 10 20.1          21.2 V ET066G96
     K07T19H  C2007 10 10.27319803 26 42.85 +16 07 37.3          21.8 V ET066H55
     K07T19H  C2007 10 10.28538203 26 42.23 +16 07 34.5          21.8 V ET066H55
     K07T19H  C2007 10 10.30170703 26 41.33 +16 07 31.9          21.9 V ET066H55
     K07T19H  C2007 10 10.41535 03 26 35.30 +16 07 09.9          21.9 V ET066G96
     K07T19H  C2007 10 10.42131 03 26 34.98 +16 07 08.8          21.4 V ET066G96
     K07T19H  C2007 10 10.42716 03 26 34.65 +16 07 07.5          21.4 V ET066G96
     K07T19H  C2007 10 10.43312 03 26 34.33 +16 07 06.7          21.6 V ET066G96

Observer details:
G96 Mt. Lemmon Survey.  Observer E. Beshore.  Measurers E. C. Beshore,
    A. Boattini, G. J. Garradd, A. R. Gibbs, A. D. Grauer, R. E. Hill,
    R. A. Kowalski, S. M. Larson, R. H. McNaught.  1.5-m reflector + CCD.
H55 Astronomical Research Observatory, Charleston.  Observer R. Holmes.
    0.81-m f/4.0 astrograph + CCD.

Orbital elements:
2007 TH19                                           PHA, Earth MOID = 0.0217 AU
Epoch 2007 Oct. 7.0 TT = JDT 2454380.5                  MPC
M 150.97546              (2000.0)            P               Q
n   0.38866459     Peri.  157.68996     -0.62298159     +0.78034286
a   1.8595994      Node    73.73295     -0.72597312     -0.55087694
e   0.5069227      Incl.    3.24839     -0.29130219     -0.29597233
P   2.54           H   17.3           G   0.15
From 17 observations 2007 Oct. 8-10.

Ephemeris:
2007 TH19                a,e,i = 1.86, 0.51, 3                   q = 0.9169
Date    TT    R. A. (2000) Decl.     Delta      r     Elong.  Phase     V
2007 10 07    03 29.40   +16 17.6    1.914    2.749   139.1    13.8    21.7
2007 10 17    03 20.29   +15 43.9    1.846    2.762   151.2    10.0    21.5
2007 10 27    03 08.94   +15 01.8    1.805    2.774   163.9     5.7    21.3
2007 11 06    02 56.29   +14 14.2    1.793    2.783   176.3     1.3    21.0
2007 11 16    02 43.57   +13 25.8    1.813    2.791   169.2     3.8    21.2
2007 11 26    02 32.01   +12 42.1    1.864    2.796   156.4     8.1    21.5
2007 12 06    02 22.56   +12 07.7    1.943    2.800   143.9    12.0    21.7
2007 12 16    02 15.80   +11 46.2    2.045    2.802   132.1    15.1    21.9

Sonia Keys                   (C) Copyright 2007 MPC           M.P.E.C. 2007-T66

Read MPEC 2007-T65 Read MPEC 2007-T67


Our Web policy. Index to the CBAT/MPC/ICQ pages.


Valid HTML 4.01!